Regional Weather Roundup
Issued by NWS

Home | Current Version | Previous Version | Graphics & Text | Print | Product List | Glossary On
Versions: 1 2 3 4 5 6 7 8 9 10 11 12 13 14 15 16 17 18 19 20 21 22 23 24 25 26 27 28 29 30 31 32 33 34 35 36 37 38 39 40 41 42 43 44 45 46 47 48 49 50
000
ASUS43 KTOP 200508
RWRKS

WEATHER ROUNDUP FOR KANSAS
NATIONAL WEATHER SERVICE GOODLAND KS
1100 PM CST SUN FEB 19 2017

NOTE:  "FAIR" INDICATES FEW OR NO CLOUDS BELOW 12,000 FEET WITH NO
SIGNIFICANT WEATHER AND/OR OBSTRUCTIONS TO VISIBILITY.

KSZ001>006-013>018-027>032-041>047-200600-
NORTHWEST KANSAS

CITY           SKY/WX    TMP DP  RH WIND       PRES   REMARKS
GOODLAND       PTCLDY    52  30  43 S18       29.66F
HAYS           PTCLDY    57  55  93 S16       29.75F
HILL CITY      CLOUDY    57  55  93 S14G21    29.72F
RUSSELL        PTCLDY    58  55  90 S18       29.75F
$$

KSZ061>065-074>080-084>089-200600-
SOUTHWEST KANSAS

CITY           SKY/WX    TMP DP  RH WIND       PRES   REMARKS
DODGE CITY     MOCLDY    54  43  66 SE9       29.74F
ELKHART          N/A     48  31  52 S10         N/A
GARDEN CITY    PTCLDY    51  35  54 SE8       29.73F
GREAT BEND     CLOUDY    57  55  93 SE13      29.78F
LIBERAL        CLOUDY    54  37  54 S9        29.76S
PRATT          CLOUDY    56  55  97 S13       29.79S FOG
$$

KSZ066>073-081>083-090>101-200600-
SOUTHEAST KANSAS

CITY           SKY/WX    TMP DP  RH WIND       PRES   REMARKS
CHANUTE        CLOUDY    64  56  75 SE9       29.89R
COFFEYVILLE    CLOUDY    66  58  75 SE13      29.87S
HUTCHINSON     LGT RAIN  59  58  96 S5        29.79F FOG
MEDICINE LODGE   N/A     58  57  97 S9        29.79F
NEWTON         CLOUDY    59  58  96 SE9       29.83F THUNDER FOG
PARSONS        CLOUDY    66  57  72 SE9G18    29.89R
WICHITA INTL   TSTM      61  59  94 E8        29.79F FOG
WICHITA JABRA  TSTM      60  59  96 SE5       29.80F FOG
WICHITA MCCONL LGT RAIN  59  57  94 S7        29.81F
WINFIELD       TSTM      60  59  96 S13       29.84R FOG
$$

KSZ007>012-019>026-033>040-048>060-102>105-200600-
NORTHEAST KANSAS

CITY           SKY/WX    TMP DP  RH WIND       PRES   REMARKS
CONCORDIA      CLOUDY    58  54  86 SE14      29.79F
EMPORIA        CLOUDY    61  57  87 SE13      29.85S
LAWRENCE       PTCLDY    53  51  93 E7        29.88F
MANHATTAN      CLOUDY    58  54  86 CALM      29.82F
MARYSVILLE     PTCLDY    55  54  94 SE9       29.82F
OLATHE IND     MOCLDY    61  53  75 SE12      29.89F
OLATHE EXE     PTCLDY    60  54  80 SE9       29.89F
SALINA         CLOUDY    60  55  83 S8        29.81S
TOPEKA BILLARD PTCLDY    53  50  89 E5        29.86F
TOPEKA FORBES  MOCLDY    58  53  84 E8        29.85F
$$




USA.gov is the U.S. government's official web portal to all federal, state and local government web resources and services.